EW1806 Weather Reports


time (UTC)temp
C
wind
direction
speed
KPH
gust
KPH
rain 1hr
cm
rain 24hr
cm
rain mn
cm
humidity
%
barometer
mb
20260507031038 16 49 8.0 16.1 0.00 0.00 0.00 58 1014.6
20260507030529 16 9 9.7 16.1 0.00 0.00 0.00 59 1014.6
20260507030039 15 5 9.7 16.1 0.00 0.00 0.00 63 1014.7
20260507025531 15 90 9.7 16.1 0.00 0.00 0.00 67 1014.8
20260507025100 15 66 4.8 8.0 0.00 0.00 0.00 71 1014.7
20260507024553 15 72 4.8 6.4 0.00 0.00 0.00 74 1014.8
20260507024043 15 71 4.8 14.5 0.00 0.00 0.00 75 1015.0
20260507023531 15 92 8.0 14.5 0.00 0.00 0.00 75 1015.1
20260507023044 15 56 6.4 14.5 0.00 0.00 0.00 75 1015.1
20260507022537 15 101 6.4 12.9 0.00 0.00 0.00 75 1015.2
20260507022027 15 102 4.8 6.4 0.00 0.00 0.00 75 1015.4
20260507021539 15 93 0.0 3.2 0.00 0.00 0.00 75 1015.4
20260507021046 15 93 1.6 3.2 0.00 0.00 0.00 75 1015.2
20260507020553 15 93 0.0 3.2 0.00 0.00 0.00 75 1015.0
20260507020106 15 93 1.6 11.3 0.00 0.00 0.00 74 1015.0
20260507015533 15 74 4.8 11.3 0.00 0.00 0.00 74 1014.9
20260507015038 15 80 4.8 16.1 0.00 0.00 0.00 73 1014.9
20260507014557 15 67 8.0 16.1 0.00 0.00 0.00 72 1014.9
20260507014040 15 75 8.0 16.1 0.00 0.00 0.00 71 1014.9
20260507013553 15 63 8.0 14.5 0.00 0.00 0.00 70 1015.0
20260507013058 16 86 6.4 11.3 0.00 0.00 0.00 69 1015.0
20260507012552 16 60 3.2 9.7 0.00 0.00 0.00 68 1015.0
20260507012053 16 55 4.8 9.7 0.00 0.00 0.00 66 1014.9
20260507011547 16 128 4.8 6.4 0.00 0.00 0.00 65 1014.8
20260507011111 16 71 3.2 9.7 0.00 0.00 0.00 64 1014.7
20260507010536 16 57 6.4 16.1 0.00 0.00 0.00 63 1014.7
20260507010106 16 87 8.0 16.1 0.00 0.00 0.00 61 1014.8
20260507005539 17 71 6.4 14.5 0.00 0.00 0.00 58 1014.7
20260507005044 17 22 4.8 8.0 0.00 0.00 0.00 58 1015.0
20260507004534 17 307 3.2 11.3 0.00 0.00 0.00 56 1015.1
20260507004036 17 289 6.4 19.3 0.00 0.00 0.00 56 1015.2
20260507003540 17 316 8.0 19.3 0.00 0.00 0.00 57 1015.1
20260507003030 17 329 8.0 16.1 0.00 0.00 0.00 57 1015.0
20260507002549 17 348 6.4 16.1 0.00 0.00 0.00 57 1014.9
20260507002030 17 339 8.0 16.1 0.00 0.00 0.00 58 1015.0
20260507001602 17 287 8.0 20.9 0.00 0.00 0.00 58 1015.1
20260507001110 16 12 11.3 24.1 0.00 0.00 0.00 59 1015.2
20260507000538 16 355 11.3 24.1 0.00 0.00 0.00 60 1015.3
20260507000030 16 59 8.0 17.7 0.00 0.00 0.00 60 1015.4
20260506235548 16 37 9.7 17.7 0.00 0.00 0.00 61 1015.4
20260506235039 16 360 9.7 16.1 0.00 0.00 0.00 62 1015.4
20260506234553 16 15 8.0 14.5 0.00 0.00 0.00 62 1015.6
20260506234037 16 21 4.8 6.4 0.00 0.00 0.00 63 1016.0
20260506233527 16 70 0.0 6.4 0.00 0.00 0.00 63 1016.1
20260506233035 16 73 3.2 6.4 0.00 0.00 0.00 64 1016.2
20260506232551 16 24 3.2 4.8 0.00 0.00 0.00 65 1016.3
20260506232040 16 113 3.2 4.8 0.00 0.00 0.00 66 1016.4
20260506231553 16 137 1.6 4.8 0.00 0.00 0.00 65 1016.4
20260506231036 16 137 3.2 4.8 0.00 0.00 0.00 64 1016.4
20260506230531 16 137 1.6 4.8 0.00 0.00 0.00 63 1016.3
20260506230035 17 48 3.2 4.8 0.00 0.00 0.00 62 1016.3
20260506225548 17 46 3.2 8.0 0.00 0.00 0.00 62 1016.3
20260506225057 17 55 3.2 9.7 0.00 0.00 0.00 62 1016.2
20260506224611 17 33 4.8 9.7 0.00 0.00 0.00 63 1016.2
20260506224029 16 30 3.2 9.7 0.00 0.00 0.00 64 1016.3
20260506223539 16 69 3.2 8.0 0.00 0.00 0.00 66 1016.2
20260506223046 17 61 3.2 11.3 0.00 0.00 0.00 66 1016.3
20260506222538 17 62 4.8 8.0 0.00 0.00 0.00 67 1016.4
20260506222043 17 68 3.2 8.0 0.00 0.00 0.00 67 1016.4
20260506221536 17 67 4.8 8.0 0.00 0.00 0.00 68 1016.4
20260506221101 17 79 4.8 8.0 0.00 0.00 0.00 67 1016.4
20260506220530 17 75 6.4 8.0 0.00 0.00 0.00 67 1016.3
20260506220032 17 65 4.8 8.0 0.00 0.00 0.00 67 1016.3
20260506215546 17 67 3.2 11.3 0.00 0.00 0.00 67 1016.2
20260506215034 17 62 4.8 8.0 0.00 0.00 0.00 66 1016.0
20260506214539 17 88 4.8 11.3 0.00 0.00 0.00 65 1016.0
20260506214034 17 94 6.4 11.3 0.00 0.00 0.00 65 1015.8
20260506213549 17 77 6.4 8.0 0.00 0.00 0.00 65 1015.7
20260506213036 17 82 3.2 6.4 0.00 0.00 0.00 65 1015.6
20260506212537 17 82 3.2 11.3 0.00 0.00 0.00 64 1015.5
20260506212041 17 84 4.8 12.9 0.00 0.00 0.00 64 1015.5
20260506211534 17 80 6.4 12.9 0.00 0.00 0.00 64 1015.4
20260506211058 17 90 6.4 12.9 0.00 0.00 0.00 63 1015.4
20260506210549 17 101 8.0 11.3 0.00 0.00 0.00 62 1015.4
20260506210112 17 106 3.2 4.8 0.00 0.00 0.00 58 1015.6
20260506205554 17 257 1.6 8.0 0.00 0.00 0.00 58 1015.5
20260506205101 18 257 1.6 11.3 0.00 0.00 0.00 57 1015.5
20260506204552 18 255 4.8 11.3 0.00 0.00 0.00 56 1015.4
20260506204041 18 344 6.4 11.3 0.00 0.00 0.00 57 1015.3
20260506203558 18 349 4.8 8.0 0.00 0.00 0.00 57 1015.3
20260506203037 18 44 3.2 6.4 0.00 0.00 0.00 57 1015.3
20260506202554 18 67 3.2 6.4 0.00 0.00 0.00 57 1015.3
20260506202037 18 69 3.2 11.3 0.00 0.00 0.00 57 1015.3
20260506201549 18 67 6.4 11.3 0.00 0.00 0.00 57 1015.4
20260506201057 18 53 4.8 9.7 0.00 0.00 0.00 58 1015.6
20260506200549 18 36 4.8 9.7 0.00 0.00 0.00 58 1015.8
20260506200047 18 19 4.8 9.7 0.00 0.00 0.00 58 1015.8
20260506195542 18 21 3.2 6.4 0.00 0.00 0.00 58 1015.9
20260506195051 18 48 1.6 8.0 0.00 0.00 0.00 58 1015.9
20260506194534 18 50 4.8 11.3 0.00 0.00 0.00 58 1015.8
20260506194035 18 67 6.4 11.3 0.00 0.00 0.00 58 1015.9
20260506193529 19 63 3.2 8.0 0.00 0.00 0.00 58 1015.9
20260506193041 19 75 1.6 4.8 0.00 0.00 0.00 58 1015.9
20260506192530 19 75 1.6 4.8 0.00 0.00 0.00 58 1015.9
20260506192035 19 75 1.6 4.8 0.00 0.00 0.00 58 1016.0
20260506191546 19 75 3.2 4.8 0.00 0.00 0.00 58 1015.9
20260506191028 19 75 1.6 4.8 0.00 0.00 0.00 58 1015.9
20260506190549 19 75 3.2 4.8 0.00 0.00 0.00 58 1015.9
20260506190053 19 75 1.6 6.4 0.00 0.00 0.00 58 1015.8
20260506185541 19 75 3.2 6.4 0.00 0.00 0.00 58 1015.7
20260506185049 19 71 3.2 4.8 0.00 0.00 0.00 58 1015.6
20260506184653 19 71 1.6 4.8 0.00 0.00 0.00 58 1015.6
20260506184027 19 71 3.2 4.8 0.00 0.00 0.00 59 1015.5
20260506183540 19 71 1.6 4.8 0.00 0.00 0.00 59 1015.5
20260506183027 19 73 3.2 8.0 0.00 0.00 0.00 60 1015.5
20260506182536 19 59 3.2 8.0 0.00 0.00 0.00 60 1015.5
20260506182041 20 95 3.2 4.8 0.00 0.00 0.00 62 1015.5
20260506181542 20 96 3.2 4.8 0.00 0.00 0.00 61 1015.4
20260506181047 20 12 3.2 4.8 0.00 0.00 0.00 60 1015.4
20260506180556 20 11 1.6 3.2 0.00 0.00 0.00 60 1015.4
20260506180040 20 11 3.2 4.8 0.00 0.00 0.00 60 1015.3
20260506175545 20 11 1.6 4.8 0.00 0.00 0.00 60 1015.2
20260506175039 20 5 1.6 4.8 0.00 0.00 0.00 62 1015.2
20260506174527 20 5 3.2 6.4 0.00 0.00 0.00 60 1015.2
20260506174040 20 5 3.2 6.4 0.00 0.00 0.00 58 1015.2
20260506173528 21 338 3.2 6.4 0.00 0.00 0.00 57 1015.2
20260506173034 21 288 3.2 8.0 0.00 0.00 0.00 56 1015.1
20260506172548 21 285 3.2 4.8 0.00 0.00 0.00 54 1015.0
20260506172038 21 296 3.2 4.8 0.00 0.00 0.00 52 1014.9
20260506171534 21 267 1.6 4.8 0.00 0.00 0.00 51 1014.8
20260506171037 21 267 3.2 4.8 0.00 0.00 0.00 52 1014.8
20260506170530 21 267 1.6 4.8 0.00 0.00 0.00 51 1014.8
20260506170026 21 267 1.6 4.8 0.00 0.00 0.00 48 1014.7
20260506165530 21 275 3.2 4.8 0.00 0.00 0.00 51 1014.7
20260506165049 21 195 1.6 6.4 0.00 0.00 0.00 48 1014.6
20260506164603 21 195 3.2 6.4 0.00 0.00 0.00 48 1014.6
20260506164031 22 244 3.2 6.4 0.00 0.00 0.00 47 1014.5
20260506163538 22 231 3.2 8.0 0.00 0.00 0.00 47 1014.5
20260506163124 22 254 6.4 9.7 0.00 0.00 0.00 46 1014.4
20260506162530 22 237 6.4 11.3 0.00 0.00 0.00 45 1014.4
20260506162102 22 232 4.8 11.3 0.00 0.00 0.00 46 1014.3
20260506161537 22 242 3.2 8.0 0.00 0.00 0.00 46 1014.2
20260506161025 22 187 4.8 8.0 0.00 0.00 0.00 46 1014.2
20260506160537 22 231 3.2 8.0 0.00 0.00 0.00 48 1014.2
20260506160027 22 219 6.4 8.0 0.00 0.00 0.00 48 1014.1
20260506155532 22 208 4.8 8.0 0.00 0.00 0.00 46 1014.1
20260506155027 22 235 4.8 8.0 0.00 0.00 0.00 45 1014.1
20260506154535 22 207 4.8 8.0 0.00 0.00 0.00 46 1014.1
20260506154032 22 205 4.8 6.4 0.00 0.00 0.00 44 1014.1
20260506153546 22 212 4.8 8.0 0.00 0.00 0.00 44 1014.2
20260506153056 23 186 6.4 8.0 0.00 0.00 0.00 44 1014.2
20260506152533 22 227 4.8 9.7 0.00 0.00 0.00 44 1014.2
20260506152022 22 200 6.4 9.7 0.00 0.00 0.00 44 1014.2
20260506151542 22 221 4.8 9.7 0.00 0.00 0.00 44 1014.2
20260506151033 22 202 4.8 9.7 0.00 0.00 0.00 44 1014.3
20260506150546 23 200 6.4 9.7 0.00 0.00 0.00 43 1014.3
20260506150054 23 190 4.8 9.7 0.00 0.00 0.00 43 1014.4
20260506145628 23 258 4.8 9.7 0.00 0.00 0.00 42 1014.4
20260506145030 23 201 4.8 8.0 0.00 0.00 0.00 41 1014.3
20260506144538 23 189 4.8 11.3 0.00 0.00 0.00 41 1014.4
20260506144103 23 190 6.4 11.3 0.00 0.00 0.00 41 1014.6
20260506143537 23 197 6.4 11.3 0.00 0.00 0.00 40 1014.6
20260506143044 23 202 8.0 11.3 0.00 0.00 0.00 39 1014.6
20260506142536 23 186 6.4 11.3 0.00 0.00 0.00 39 1014.6
20260506142027 23 199 6.4 11.3 0.00 0.00 0.00 40 1014.6
20260506141534 23 209 4.8 11.3 0.00 0.00 0.00 40 1014.6
20260506141040 23 194 4.8 12.9 0.00 0.00 0.00 41 1014.5
20260506140556 23 196 9.7 12.9 0.00 0.00 0.00 41 1014.6
20260506140026 23 231 6.4 14.5 0.00 0.00 0.00 41 1014.6
20260506135537 23 186 4.8 14.5 0.00 0.00 0.00 41 1014.6
20260506135106 23 199 8.0 14.5 0.00 0.00 0.00 39 1014.7
20260506134546 24 173 3.2 16.1 0.00 0.00 0.00 41 1014.7
20260506134054 23 194 9.7 16.1 0.00 0.00 0.00 40 1014.9
20260506133547 24 181 4.8 12.9 0.00 0.00 0.00 40 1014.9
20260506133029 23 182 6.4 12.9 0.00 0.00 0.00 41 1014.9
20260506132546 23 181 8.0 14.5 0.00 0.00 0.00 40 1014.9
20260506132033 24 189 8.0 14.5 0.00 0.00 0.00 40 1015.0
20260506131537 23 155 8.0 11.3 0.00 0.00 0.00 38 1015.0
20260506131100 24 185 6.4 14.5 0.00 0.00 0.00 38 1015.0
20260506130532 24 176 8.0 14.5 0.00 0.00 0.00 37 1015.0
20260506130039 24 173 4.8 14.5 0.00 0.00 0.00 38 1015.1
20260506125531 23 170 8.0 16.1 0.00 0.00 0.00 38 1015.1
20260506125041 23 178 9.7 16.1 0.00 0.00 0.00 38 1015.1
20260506124529 23 194 4.8 19.3 0.00 0.00 0.00 39 1015.1
20260506124035 23 223 8.0 19.3 0.00 0.00 0.00 40 1015.2
20260506123534 23 217 11.3 14.5 0.00 0.00 0.00 40 1015.3
20260506123026 23 173 8.0 14.5 0.00 0.00 0.00 38 1015.3
20260506122546 23 194 9.7 16.1 0.00 0.00 0.00 39 1015.3
20260506122039 23 191 11.3 16.1 0.00 0.00 0.00 41 1015.3
20260506121532 23 186 4.8 16.1 0.00 0.00 0.00 44 1015.3
20260506121032 22 213 9.7 16.1 0.00 0.00 0.00 47 1015.4
20260506120537 23 178 9.7 12.9 0.00 0.00 0.00 45 1015.4
20260506120023 23 213 4.8 14.5 0.00 0.00 0.00 46 1015.4
20260506115541 22 194 8.0 16.1 0.00 0.00 0.00 48 1015.5
20260506115122 23 190 9.7 14.5 0.00 0.00 0.00 45 1015.6
20260506114530 23 236 3.2 11.3 0.00 0.00 0.00 44 1015.6
20260506114028 22 156 4.8 12.9 0.00 0.00 0.00 47 1015.6
20260506113542 22 203 8.0 12.9 0.00 0.00 0.00 49 1015.7
20260506113037 22 200 6.4 11.3 0.00 0.00 0.00 51 1015.7
20260506112549 22 180 6.4 14.5 0.00 0.00 0.00 48 1015.7
20260506112035 22 168 8.0 14.5 0.00 0.00 0.00 50 1015.8
20260506111527 22 171 8.0 14.5 0.00 0.00 0.00 52 1015.7
20260506111037 22 186 4.8 17.7 0.00 0.00 0.00 58 1015.7
20260506110530 21 187 11.3 17.7 0.00 0.00 0.00 59 1015.7
20260506110035 21 185 11.3 14.5 0.00 0.00 0.00 57 1015.7
20260506105609 22 218 8.0 14.5 0.00 0.00 0.00 57 1015.6
20260506105056 21 211 9.7 12.9 0.00 0.00 0.00 56 1015.6
20260506104525 21 204 9.7 14.5 0.00 0.00 0.00 51 1015.6
20260506104039 21 191 8.0 11.3 0.00 0.00 0.00 51 1015.6
20260506103540 21 199 9.7 11.3 0.00 0.00 0.00 51 1015.6
20260506103028 22 200 6.4 11.3 0.00 0.00 0.00 49 1015.7
20260506102535 22 173 4.8 11.3 0.00 0.00 0.00 48 1015.6
20260506102051 21 194 4.8 11.3 0.00 0.00 0.00 49 1015.7
20260506101541 22 200 6.4 11.3 0.00 0.00 0.00 47 1015.8
20260506101028 22 183 4.8 8.0 0.00 0.00 0.00 50 1015.8
20260506100535 22 180 4.8 8.0 0.00 0.00 0.00 52 1015.8
20260506100103 21 161 4.8 8.0 0.00 0.00 0.00 52 1015.9
20260506095557 21 166 3.2 9.7 0.00 0.00 0.00 53 1015.9
20260506095025 21 131 6.4 12.9 0.00 0.00 0.00 57 1015.9
20260506094537 21 188 8.0 12.9 0.00 0.00 0.00 60 1016.0
20260506094055 21 202 6.4 12.9 0.00 0.00 0.00 60 1016.1
20260506093608 21 344 4.8 12.9 0.00 0.00 0.00 61 1016.0
20260506093038 21 195 9.7 14.5 0.00 0.00 0.00 58 1016.1
20260506092612 20 180 6.4 12.9 0.00 0.00 0.00 59 1016.1
20260506092041 20 238 8.0 12.9 0.00 0.00 0.00 57 1016.1
20260506091529 21 226 9.7 12.9 0.00 0.00 0.00 55 1016.1
20260506091047 21 220 6.4 11.3 0.00 0.00 0.00 53 1016.0
20260506090539 21 240 6.4 11.3 0.00 0.00 0.00 50 1015.9
20260506090032 21 166 4.8 11.3 0.00 0.00 0.00 45 1015.8
20260506085539 21 225 6.4 9.7 0.00 0.00 0.00 45 1015.8
20260506085035 21 160 4.8 12.9 0.00 0.00 0.00 47 1015.7
20260506084548 21 177 9.7 12.9 0.00 0.00 0.00 47 1015.7
20260506084056 21 175 3.2 8.0 0.00 0.00 0.00 50 1015.6
20260506083547 21 177 3.2 8.0 0.00 0.00 0.00 49 1015.7
20260506083031 21 191 4.8 8.0 0.00 0.00 0.00 47 1015.8
20260506082547 21 159 4.8 9.7 0.00 0.00 0.00 45 1015.7
20260506082106 21 158 4.8 9.7 0.00 0.00 0.00 43 1015.7
20260506081533 21 169 6.4 11.3 0.00 0.00 0.00 41 1015.7
20260506081026 21 131 4.8 11.3 0.00 0.00 0.00 41 1015.6
20260506080543 21 219 4.8 8.0 0.00 0.00 0.00 42 1015.6
20260506073025 20 129 3.2 6.4 0.00 0.00 0.00 44 1015.5
20260506072605 20 130 3.2 8.0 0.00 0.00 0.00 43 1015.5
20260506072036 20 166 4.8 8.0 0.00 0.00 0.00 43 1015.5
20260506071552 20 132 3.2 8.0 0.00 0.00 0.00 45 1015.5
20260506071101 20 143 3.2 8.0 0.00 0.00 0.00 48 1015.5
20260506070558 20 183 1.6 6.4 0.00 0.00 0.00 50 1015.5
20260506062030 17 139 1.6 4.8 0.00 0.00 0.00 60 1015.8
20260506061533 17 139 0.0 4.8 0.00 0.00 0.00 61 1015.8
20260506061046 17 139 3.2 4.8 0.00 0.00 0.00 60 1015.8
20260506060546 17 139 1.6 6.4 0.00 0.00 0.00 60 1015.7
20260506051045 16 96 1.6 4.8 0.00 0.00 0.00 56 1015.3
20260506050555 16 96 1.6 3.2 0.00 0.00 0.00 55 1015.4
20260506045040 16 96 1.6 3.2 0.00 0.00 0.00 52 1015.1
20260506044557 16 96 1.6 3.2 0.00 0.00 0.00 49 1015.1
20260506044030 15 96 0.0 1.6 0.00 0.00 0.00 49 1015.1
20260506043534 15 96 0.0 4.8 0.00 0.00 0.00 51 1015.1
20260506043049 15 96 1.6 4.8 0.00 0.00 0.00 50 1015.1
20260506042600 15 97 1.6 4.8 0.00 0.00 0.00 50 1015.0
20260506042028 15 98 1.6 8.0 0.00 0.00 0.00 48 1015.0
20260506041536 15 98 3.2 8.0 0.00 0.00 0.00 47 1015.0
20260506041040 16 102 4.8 12.9 0.00 0.00 0.00 45 1015.0
20260506040551 16 48 6.4 12.9 0.00 0.00 0.00 45 1015.0
20260506040058 15 83 6.4 9.7 0.00 0.00 0.00 45 1014.9
20260506035530 15 16 4.8 9.7 0.00 0.00 0.00 45 1014.8
20260506035033 15 49 4.8 9.7 0.00 0.00 0.00 45 1014.8
20260506034548 15 38 3.2 11.3 0.00 0.00 0.00 45 1014.8
20260506034109 15 51 4.8 11.3 0.00 0.00 0.00 45 1014.8
20260506033540 15 31 6.4 14.5 0.00 0.00 0.00 45 1014.8
20260506033028 16 65 6.4 14.5 0.00 0.00 0.00 44 1014.8
20260506032543 16 38 6.4 17.7 0.00 0.00 0.00 44 1014.8
20260506032049 16 72 8.0 17.7 0.00 0.00 0.00 43 1014.9
20260506031534 16 53 9.7 19.3 0.00 0.00 0.00 44 1015.0